Location: Kernascl�den
(48.0062°N, 3.3198°W)
Time: 22:54:15
(UTC+00:00)

Okean 1-7 Rocket - Pass Details

Date: 21 January 2021
Orbit: 615 x 650 km, 82.5° (Epoch: 04 March)

Event Time Altitude Azimuth Distance (km) Brightness Sun altitude
Rises 17:55:54 0° 167° (SSE) 2,942 7.1 -9.9°
Reaches altitude 10° 17:58:13 10° 160° (SSE) 2,042 6.2 -10.3°
Maximum altitude 18:02:27 40° 92° (E) 964 4.1 -10.9°
Drops below altitude 10° 18:06:44 10° 23° (NNE) 2,066 5.9 -11.6°
Sets 18:09:06 0° 16° (NNE) 2,983 6.7 -12.0°
